Aérodrome :
LOGIN :

S'inscrire | Disclaimer

   EN    FR    IT 

 










Légende :    VFR   VFR Marginal   IFR   IFR Intensif   IFR Très Intensif
Visi : 
Plafond : 
>= 8 km
>= 3000ft
5 à 8 km
1000 à 3000 ft
1500m à 5 km
500 à 1000 ft
800 à 1500m
200 à 500 ft
< 800m
< 200 ft
Symboles :   Orages  Brouillard  Fortes neiges  Fortes précipitations  Vent > 20 kt
SIGMETs :   Divers  Orages  Givrage  Turbulence  Onde Orograph.  Cendres Volcan.







- Altitude de l'aérodrome : 2265 ft
- Code IATA : CZL


DABC - Mohamed Boudiaf Int. Constantine

DERNIER METAR :
  • 210430Z 00000KT CAVOK 11/05 Q1021

METARs EXPIRÉS :
  • 210400Z 00000KT CAVOK 11/05 Q1021
  • 210330Z 15003KT CAVOK 12/06 Q1021
  • 210300Z 13003KT CAVOK 12/05 Q1021
  • 210230Z 12004KT CAVOK 12/06 Q1021
  • 210200Z 12004KT CAVOK 12/06 Q1022

TAF TAF DABC
Valide du 21 à 00h jusqu'au 22 à 00h UTC


202300Z 2100/2124 VRB02KT 9999 FEW030
BECMG 2113/2115 07010KT
Pas de NOTAMs connus pour ce terrain.



MET'MAP, la Météo Aéronautique d'un coup d'oeil ! - Copyright ORBIFLY Décembre 2007 - Disclaimer

ORBIFLY MET'MAP TEAM :

Programmation & Développement : Alexandra Zaïnal
Conception & Développement : Baudouin d'Aumeries
Co-Programmation & Développement : Marc-Olivier Méhu
Soutien technique & logistique : Manuel Goepfert

Contact : metmap@orbifly.com




SOURCES & CREDITS :

   NOAA